This demonstration page uses our WeatherBlox Daily Observations layout. Learn more.

41.55636, -103.73856

Hourly Observations for July 13, 2016

Temp ( °F °C ) Dew Point ( °F °C ) Humidity (%) Winds ( mph kmh ) Pressure ( in mb ) Visibility ( mi km ) Precip ( " mm )
12:53 am 00:53 Clear 67 19.4 46 7.8 47 47 WSW 8 13 29.74 1007 10 16.0934 0 0
1:53 am 01:53 Mostly Clear 65 18.3 44 6.7 47 47 NNW 7 11 29.75 1007 10 16.0934 0 0
2:53 am 02:53 Clear 65 18.3 39 3.9 39 39 N 5 7 29.75 1008 10 16.0934 0 0
3:53 am 03:53 Clear 63 17.2 38 3.3 40 40 ENE 7 11 29.77 1008 10 16.0934 0 0
4:53 am 04:53 Clear 59 15 40 4.4 49 49 undefined N/A 29.85 1011 10 16.0934 0 0
5:53 am 05:53 Sunny 55 12.8 39 3.9 55 55 NW 3 6 29.88 1012 10 16.0934 0 0
6:53 am 06:53 Sunny 63 17.2 42 5.6 47 47 NNW 9 15 29.91 1013 10 16.0934 0 0
7:53 am 07:53 Sunny 68 20 43 6.1 40 40 E 6 9 29.93 1014 10 16.0934 0 0
8:53 am 08:53 Sunny 72 22.2 44 6.7 37 37 ESE 7 11 29.93 1014 10 16.0934 0 0
10:53 am 10:53 Sunny 77 25 43 6 30 30 VRB 5 7 29.85 1011 N/A 0 0
11:53 am 11:53 Sunny 80 26.7 42 5.6 26 26 undefined N/A 29.94 1014 10 16.0934 0 0
12:53 pm 12:53 Sunny 82 28 43 6 25 25 VRB 5 7 29.8 1009 10 16.0934 0 0
1:53 pm 13:53 Sunny 84 28.9 39 3.9 20 20 E 6 9 29.91 1013 10 16.0934 0 0
2:53 pm 14:53 Sunny 87 30.6 38 3.3 18 18 VRB 5 7 29.89 1012 10 16.0934 0 0
4:53 pm 16:53 Sunny 89 31.7 36 2.2 15 15 VRB 6 9 29.87 1012 10 16.0934 0 0
5:53 pm 17:53 Sunny 89 31.7 37 2.8 16 16 W 6 9 29.87 1012 10 16.0934 0 0
6:53 pm 18:53 Sunny 87 30.6 38 3.3 18 18 SSW 6 9 29.87 1011 10 16.0934 0 0
7:53 pm 19:53 Sunny 80 26.7 46 7.8 30 30 NE 12 19 29.89 1012 10 16.0934 0 0
8:53 pm 20:53 Clear 75 23.9 46 7.8 36 36 NE 12 19 29.92 1013 10 16.0934 0 0
9:53 pm 21:53 Clear 72 22.2 43 6.1 35 35 NNE 12 19 29.94 1014 10 16.0934 0 0
10:53 pm 22:53 Clear 70 21.1 48 8.9 46 46 ENE 20 31 29.98 1015 10 16.0934 0 0
11:53 pm 23:53 Clear 68 20 49 9.4 51 51 ENE 18 30 30 1016 10 16.0934 0 0

Powered by AerisWeather